PROITERES
1 38756U 12047B   14121.78868403  .00000740  00000-0  11806-3 0  7905
2 38756 098.2279 209.3251 0013257 166.6733 193.4827 14.74898069 88343
BEESAT-3
1 39134U 13015E   14121.80450096  .00006520  00000-0  46932-3 0  5751
2 39134 064.8788 285.3107 0022926 314.4237 045.5005 15.04796684 56688
BEESAT-2
1 39136U 13015G   14121.78401229  .00005955  00000-0  42318-3 0  5591
2 39136 064.8768 285.7072 0023532 315.7585 044.2156 15.04245458 56677
LO-75
1 39382U 13064C   14121.05343816  .00064747  00000-0  16225-2 0  2122
2 39382 040.4969 017.7328 0017708 263.3800 096.4635 15.38957446 24788
ZACUBE-1
1 39417U 13066B   14120.78277068  .00001841  00000-0  25396-3 0  2842
2 39417 097.7782 193.0289 0063278 038.2549 322.3116 14.77974636 23697
TRITON-1
1 39427U 13066M   14121.13916361  .00002055  00000-0  35128-3 0  1389
2 39427 097.7657 190.1447 0119375 040.9487 320.0544 14.65294717 23506
DELFIN3XT
1 39428U 13066N   14121.26760169  .00003306  00000-0  57733-3 0  1428
2 39428 097.7650 189.6621 0129985 041.9354 319.1575 14.63139558 23477
GOMX-1
1 39430U 13066Q   14121.73892185  .00001789  00000-0  34706-3 0  4338
2 39430 097.7590 188.5684 0157483 044.0327 317.3165 14.56736463 23451
MO-76
1 39436U 13066W   14121.75370802  .00016344  00000-0  17216-2 0  1890
2 39436 097.7792 196.1090 0027153 049.3383 310.9981 14.89156185 23961
LO-74
1 39440U 13066AA  14121.19251828  .00002263  00000-0  34049-3 0  1360
2 39440 097.7726 192.1436 0085545 037.6715 323.0342 14.72939863 23668
PUCPSAT-1
1 39442U 13066AC  14121.16665502  .00003461  00000-0  39874-3 0  1347
2 39442 097.7830 195.3579 0036084 041.9560 318.4234 14.85881763 22643
LITSAT-1
1 39568U 98067EM  14121.83567690  .00422900  00000-0  20675-2 0  1445
2 39568 051.6387 323.4030 0011129 235.0032 220.3251 15.80509268  9768
LITUANSAT
1 39569U 98067EN  14121.69936281  .00123070  00000-0  11442-2 0  1949
2 39569 051.6468 326.3853 0006365 191.9877 205.3079 15.66489450  9717
SHINAISAT
1 39572U 14009A   14121.69640981  .00044723  00000-0  44170-3 0   936
2 39572 065.0164 203.8938 0014799 290.7448 069.2143 15.65510969  9828
OPUSAT
1 39575U 14009D   14121.42271067  .00122963  00000-0  80100-3 0  1112
2 39575 065.0074 203.1231 0015052 317.8112 042.1733 15.75159693  9810
TEIKYOSAT
1 39576U 14009E   14121.69067243  .00055105  00000-0  49243-3 0   981
2 39576 065.0139 203.3931 0012100 307.3882 052.6187 15.67975310  9835
IFT-1
1 39577U 14009F   14121.41460648  .00085754  00000-0  64650-3 0  1026
2 39577 065.0092 203.6214 0010629 309.5285 050.4940 15.71958627  9803
CO-77
1 39578U 14009G   14121.84166263  .00530180  11697-3  15710-2 0  1229
2 39578 065.0002 199.8697 0016479 313.4971 046.4826 15.92022384  9905
STARS-II
1 39579U 14009H   14116.06110564  .20186783  77451-5  52661-3 0  1329
2 39579 064.9886 219.0071 0013010 293.8065 069.6132 16.44611049  9028
KICKSAT
1 39685U 14022F   14121.87361648  .00641982  18766-3  14147-2 0   353
2 39685 051.6505 325.3877 0020560 308.0645 051.8485 15.97061992  2078
